Location: Bronschhofen
(47.4788°N, 9.0353°E)
Time: 18:44:53
(UTC+00:00)

S3M - Pass Details

Date: 20 May 2022
Orbit: 948 x 1005 km, 83.0° (Epoch: 05 July)

Event Time Altitude Azimuth Distance (km) Brightness Sun altitude
Exits shadow 00:54:28 32° 196° (SSW) 1,640 4.6 -19.3°
Maximum altitude 00:57:38 80° 279° (W) 1,026 4.0 -19.1°
Drops below altitude 10° 01:04:04 10° 7° (N) 2,784 7.5 -18.7°
Sets 01:06:36 0° 9° (N) 3,733 8.4 -18.5°
